Content
SEND FEEDBACK

Daily
Averages
Monthly
Summary
United States of America

MAURICEVILLE, TEXAS


Home > North America > United States > Texas
Elevation: 20 feet     Latitude: 30 14N     Longitude: 093 44W

WEATHER
 
SELECT A DAY
Number of Records: 107,977;   Date Range: 8/25/05 - 7/21/14
 
SHARE

PRINT THIS DATA

[ ← Previous Day ]
WEATHER ALMANAC - OCTOBER 1, 2013
[ Next Day → ]
[ °C ]   °F
Weather ElementAverageHighLow
Temperature77.4 °F84.9 °F (12:55 pm)72 °F (4:35 am)
Dewpoint73.6 °F76.3 °F (10:15 am)71.1 °F (4:35 am)
Humidity88.2 %97 % (3:55 am)69 % (12:55 pm)
Barometer29.95 in29.98 in (9:55 am)29.90 in (3:15 am)
Wind Speed4.9 mph12.7 mph (11:55 am)
Wind Gust18.4 mph (2:55 pm)
Weather ElementAverage
Visibility8.7 mi
Wind DirectionENE (77.5 °)

Weather ElementTotal
Precipitation---
Cooling Degree Days13.5 (Base 65)
Growing Degree Days28.5 (Base 50)
Averaged from 71 records on October 1, 2013
WEATHER CONDITIONS BREAKOUT
WIND DIRECTION BREAKOUT
WEATHER BY HOUR - OCTOBER 1, 2013
[ °C ]   °F
Local TimeTemperatureDewpointHumidityBarometerVisibilityWind DirectionWind SpeedGust SpeedPrecipitationEventsConditions
12:35 AM75.7 °F73.6 °F93 %29.91 in10.0 miCalmScattered Clouds
12:55 AM75.2 °F73.4 °F94 %29.92 in10.0 miCalmScattered Clouds
1:15 AM75.0 °F73.4 °F95 %29.91 in10.0 miSouth (190°)3.5 mphScattered Clouds
1:35 AM75.2 °F73.6 °F95 %29.91 in10.0 miSE (130°)3.5 mphClear
1:55 AM75.2 °F73.6 °F95 %29.91 in10.0 miCalmScattered Clouds
2:15 AM74.3 °F73.0 °F96 %29.91 in10.0 miCalmClear
2:35 AM74.3 °F72.9 °F95 %29.91 in10.0 miCalmScattered Clouds
2:55 AM73.0 °F71.6 °F95 %29.91 in7.0 miCalmClear
3:15 AM73.4 °F72.1 °F96 %29.90 in5.0 miCalmClear
3:35 AM72.9 °F71.8 °F96 %29.90 in2.0 miCalmClear
3:55 AM72.5 °F71.6 °F97 %29.90 in3.0 miCalmScattered Clouds
4:15 AM72.5 °F71.6 °F97 %29.90 in5.0 miCalmScattered Clouds
4:35 AM72.0 °F71.1 °F97 %29.90 in4.0 miNNE (30°)3.5 mphClear
4:55 AM72.9 °F72.0 °F97 %29.90 in3.0 miNE (40°)4.6 mphClear
5:15 AM72.9 °F72.0 °F97 %29.90 in5.0 miNNE (30°)3.5 mphClear
5:35 AM72.7 °F71.8 °F97 %29.91 in5.0 miCalmScattered Clouds
5:55 AM72.5 °F71.6 °F97 %29.92 in5.0 miNNE (30°)3.5 mphThunderstormMostly Cloudy
6:15 AM72.7 °F71.8 °F97 %29.93 in7.0 miCalmMostly Cloudy
6:35 AM72.5 °F71.6 °F97 %29.93 in7.0 miNNE (30°)3.5 mphScattered Clouds
6:55 AM72.5 °F71.6 °F97 %29.94 in7.0 miCalmClear
7:15 AM72.5 °F71.6 °F97 %29.94 in7.0 miNNE (30°)3.5 mphMostly Cloudy
7:35 AM73.0 °F72.1 °F97 %29.95 in7.0 miNE (40°)3.5 mphOvercast
7:55 AM73.6 °F72.7 °F97 %29.95 in5.0 miCalmRainRain
8:15 AM73.8 °F72.9 °F97 %29.95 in7.0 miNNE (30°)3.5 mphLight Drizzle
8:35 AM74.3 °F73.4 °F97 %29.95 in7.0 miCalmClear
8:55 AM74.5 °F73.6 °F97 %29.96 in5.0 miENE (60°)4.6 mphClear
9:15 AM75.2 °F74.3 °F97 %29.96 in7.0 miNE (50°)4.6 mphClear
9:35 AM76.3 °F75.2 °F96 %29.97 in10.0 miENE (70°)6.9 mphClear
9:55 AM78.4 °F76.1 °F92 %29.98 in10.0 miEast (80°)6.9 mphClear
10:15 AM79.5 °F76.3 °F90 %29.98 in10.0 miENE (60°)11.5 mphScattered Clouds
10:35 AM79.7 °F75.6 °F87 %29.98 in10.0 miENE (70°)10.4 mph16.1 mphMostly Cloudy
10:55 AM81.1 °F73.8 °F78 %29.98 in10.0 miEast (100°)9.2 mphScattered Clouds
11:15 AM82.8 °F75.9 °F80 %29.97 in10.0 miEast (90°)11.5 mphClear
11:35 AM83.5 °F76.1 °F78 %29.98 in10.0 miEast (100°)10.4 mphScattered Clouds
11:55 AM83.1 °F75.7 °F78 %29.98 in10.0 miESE (120°)12.7 mph17.3 mphMostly Cloudy
12:15 PM83.8 °F75.6 °F76 %29.98 in10.0 miESE (110°)10.4 mphScattered Clouds
12:35 PM84.2 °F74.7 °F73 %29.98 in10.0 miSE (130°)10.4 mphClear
12:55 PM84.9 °F73.6 °F69 %29.97 in10.0 miSE (130°)10.4 mph17.3 mphClear
1:15 PM83.1 °F74.3 °F75 %29.97 in10.0 miSE (140°)10.4 mphClear
1:35 PM81.9 °F73.8 °F76 %29.96 in10.0 miSSE (150°)10.4 mph16.1 mphScattered Clouds
1:55 PM82.2 °F74.5 °F77 %29.96 in10.0 miSE (130°)9.2 mphScattered Clouds
2:15 PM82.0 °F73.6 °F75 %29.95 in10.0 miSE (130°)9.2 mphMostly Cloudy
2:35 PM82.0 °F73.6 °F75 %29.94 in10.0 miESE (120°)11.5 mphThunderstormOvercast
2:55 PM81.5 °F74.3 °F79 %29.96 in10.0 miSE (140°)10.4 mph18.4 mphMostly Cloudy
3:15 PM81.1 °F74.1 °F79 %29.95 in10.0 miSE (130°)9.2 mphScattered Clouds
3:35 PM81.1 °F74.8 °F81 %29.96 in10.0 miSSE (160°)9.2 mphMostly Cloudy
3:55 PM80.8 °F74.7 °F82 %29.95 in10.0 miSSE (160°)9.2 mphThunderstormScattered Clouds
4:15 PM80.8 °F74.5 °F81 %29.95 in10.0 miSSE (150°)5.8 mphMostly Cloudy
4:35 PM80.6 °F74.8 °F83 %29.94 in10.0 miSE (140°)5.8 mphMostly Cloudy
4:55 PM80.6 °F74.3 °F81 %29.93 in10.0 miSE (140°)5.8 mphScattered Clouds
5:15 PM80.8 °F74.7 °F82 %29.92 in10.0 miSE (130°)5.8 mphScattered Clouds
5:35 PM80.8 °F74.7 °F82 %29.93 in10.0 miESE (120°)5.8 mphScattered Clouds
5:55 PM80.8 °F74.7 °F82 %29.95 in10.0 miSE (130°)5.8 mphScattered Clouds
6:15 PM80.4 °F74.5 °F82 %29.95 in10.0 miSE (130°)3.5 mphScattered Clouds
6:35 PM79.7 °F74.5 °F84 %29.95 in10.0 miSE (140°)4.6 mphScattered Clouds
6:55 PM79.0 °F74.3 °F85 %29.94 in10.0 miCalmClear
7:15 PM78.1 °F74.3 °F88 %29.94 in10.0 miESE (110°)4.6 mphClear
7:35 PM78.4 °F74.5 °F88 %29.95 in10.0 miESE (110°)4.6 mphMostly Cloudy
7:55 PM78.8 °F74.5 °F87 %29.95 in10.0 miESE (120°)4.6 mphMostly Cloudy
8:15 PM78.3 °F74.5 °F88 %29.96 in10.0 miESE (120°)3.5 mphScattered Clouds
8:35 PM78.3 °F73.9 °F87 %29.96 in10.0 miESE (110°)6.9 mphMostly Cloudy
8:55 PM77.9 °F73.4 °F86 %29.96 in10.0 miESE (110°)4.6 mphScattered Clouds
9:15 PM77.2 °F72.9 °F86 %29.97 in10.0 miEast (100°)3.5 mphClear
9:35 PM76.6 °F72.7 °F87 %29.98 in10.0 miEast (90°)3.5 mphClear
9:55 PM76.5 °F72.7 °F88 %29.98 in10.0 miEast (100°)3.5 mphClear
10:15 PM75.6 °F72.5 °F90 %29.98 in10.0 miENE (70°)4.6 mphClear
10:35 PM75.2 °F72.1 °F90 %29.98 in10.0 miCalmClear
10:55 PM75.4 °F72.5 °F91 %29.98 in10.0 miEast (100°)4.6 mphClear
11:15 PM75.7 °F72.7 °F90 %29.98 in10.0 miEast (100°)4.6 mphClear
11:35 PM76.1 °F72.7 °F89 %29.98 in10.0 miEast (90°)4.6 mphClear
11:55 PM75.4 °F73.2 °F93 %29.98 in10.0 miEast (80°)5.8 mphScattered Clouds
Hourly data recorded from KORG, located miles away from Mauriceville, Texas







STORIES FROM OUR PARTNERS